[[{"header":{"parameterUnit":"m.s-1","parameterCategory":1,"la1":30.2991,"la2":30.254,"lo1":-89.0895,"lo2":-89.0444,"dy":0.0017,"dx":0.0017,"nx":28,"ny":28,"refTime":"2025-04-13T21:00:00:Z","depth":0,"parameterNumber":2,"parameterNumberName":"U-component_of_WINDS"},"data":[0,0,0,0,0,0,0,0,0,0,0,0,0,0,0,0,0,0,0,0,0,0,0,0,0,0,0,0,0,0,0,0,0,0,0,0,0,0,0,0,0,0,0,0,0,0,0,0,0,0,0,0,0,0,0,0,0,0,2.9731,2.9732,0,2.9793,2.9794,2.9795,2.9762,2.976,2.9759,2.9757,2.9822,2.9825,2.9828,0,0,0,0,0,0,0,0,0,0,0,0,0,2.9584,2.9587,2.9731,2.9732,2.9733,2.9793,2.9794,2.9795,2.9762,2.976,2.9758,2.9756,2.9821,2.9825,2.9829,0,0,0,0,0,0,0,0,0,0,0,0,0,2.9647,2.9588,2.9731,2.9724,2.9723,2.9793,2.9794,2.9795,2.9763,2.976,2.9758,2.9755,2.9819,2.9824,2.9829,2.991,0,0,2.9844,2.9846,0,0,0,0,0,0,0,0,2.9644,2.9653,2.9724,2.9724,2.9724,2.9767,2.9766,2.9834,2.9763,2.9748,2.9757,2.9754,2.9806,2.9812,2.9829,2.9913,2.9916,2.9845,2.9848,2.985,2.9851,0,0,0,0,0,0,0,2.964,2.965,2.9756,2.9725,2.9725,2.9717,2.9723,2.9779,2.979,2.9749,2.9747,2.9754,2.9805,2.9824,2.983,2.9917,2.9845,2.9849,2.9852,2.9854,3.007,3.0072,0,0,0,0,0,0,2.9635,2.9647,2.9754,2.9758,2.9677,2.9722,2.9729,2.9756,2.9789,2.9792,2.9757,2.9753,2.9817,2.9825,2.9832,2.9929,2.985,2.9854,2.9857,3.0067,3.007,3.0073,0,0,0,0,0,0,2.9632,2.9645,2.9751,2.9702,2.9714,2.9727,2.9758,2.9759,2.9777,2.9795,2.9797,2.9774,2.9815,2.9825,2.9891,2.993,2.9857,2.9861,3.0064,3.0068,3.0072,3.0122,0,0,0,0,0,0,2.9628,2.9644,2.9675,2.9702,2.9717,2.9809,2.976,2.9762,2.9786,2.9781,2.9812,2.9814,2.9814,2.9884,2.9896,2.9936,2.9865,3.006,3.0066,3.0071,3.0117,3.0128,3.0137,0,0,0,0,0,2.9623,2.9687,2.9677,2.969,2.9756,2.9811,2.9819,2.9817,2.9789,2.982,2.9832,2.9813,2.9924,2.9891,2.9904,2.9946,3.0058,3.0064,3.007,3.0113,3.0126,3.0136,0,0,0,0,0,0,2.9665,2.9691,2.968,2.9754,2.9781,2.9805,2.9844,2.9831,2.9866,2.9861,2.9857,2.9864,2.9932,2.9946,2.9908,3.0026,2.9987,2.9996,3.0014,3.0027,3.0036,3.0031,2.9869,0,0,0,0,0,2.9682,2.9725,2.9745,2.9809,2.9823,2.9832,2.9855,2.9852,2.9879,2.989,2.9906,2.9934,2.9974,3.0001,3.004,3.0119,3.0125,3.0155,3.0165,3.0172,3.018,3.0223,3.0236,3.0094,3.0094,3.0094,0,0,2.972,2.9739,2.9766,2.9818,2.9838,2.9882,2.9841,2.9889,2.9922,2.9897,2.996,2.9973,3.0003,3.0075,3.0108,3.0089,3.0221,3.018,3.0187,3.019,3.023,3.0244,3.0256,3.0098,3.0097,3.0097,0,0,2.981,2.9829,2.9884,2.9905,2.9935,2.9941,2.9954,2.9981,2.9988,3.005,3.0033,3.0072,3.0142,3.0164,3.0185,3.0283,3.0268,3.0296,3.0347,3.0388,3.0399,3.0409,3.0444,3.0456,3.0304,3.0304,3.0304,0,2.9852,2.9918,2.9914,2.9964,2.9987,2.9966,3.0022,3.0043,3.0084,3.0101,3.0079,3.0167,3.0186,3.0263,3.0286,3.0304,3.0319,3.0292,3.0398,3.0408,3.0417,3.045,3.0463,3.0307,3.0307,3.0307,3.0306,0,2.9968,3.0014,3.0054,3.0095,3.0123,3.0175,3.018,3.0209,3.0202,3.021,3.0274,3.0296,3.0338,3.0356,3.0351,3.0433,3.042,3.0398,3.0358,3.0434,3.0465,3.0477,3.0312,3.0311,3.031,3.0309,0,0,3.0085,3.0123,3.0138,3.0156,3.0188,3.0224,3.0275,3.0316,3.0341,3.0371,3.0413,3.0474,3.0453,3.0477,3.0474,3.051,3.0586,3.0484,3.0485,3.0502,3.0676,3.0692,3.0707,3.0576,3.0578,3.058,3.0674,0,3.0177,3.0267,3.0265,3.0349,3.039,3.0372,3.0416,3.0441,3.045,3.0486,3.0496,3.0538,3.0509,3.0523,3.0558,3.0569,3.0621,3.0563,3.0616,3.0618,3.0608,3.0723,3.074,3.0827,3.0686,3.0688,3.0689,0,3.0296,3.0329,3.0417,3.0442,3.046,3.05,3.0537,3.0573,3.0601,3.0604,3.063,3.0622,3.0674,3.0633,3.0705,3.0665,3.0687,3.0696,3.0699,3.0704,3.0658,3.073,3.0855,3.0867,3.0708,3.0707,3.0706,0,3.0372,3.0439,3.0499,3.0515,3.0547,3.0576,3.0591,3.0616,3.064,3.0673,3.0689,3.0728,3.0749,3.0779,3.0781,3.0752,3.0854,3.0813,3.0858,3.0858,3.088,3.0878,3.1009,3.0895,3.0895,3.0895,3.0894,0,3.0474,3.0528,3.0534,3.0571,3.0631,3.0629,3.0689,3.0701,3.0723,3.0762,3.0749,3.0786,3.0786,3.0825,3.0827,3.0885,3.0895,3.09,3.0899,3.0901,3.09,3.0914,3.0908,3.0898,3.0897,3.0897,3.0896,0,3.0569,3.0575,3.064,3.0665,3.0672,3.0715,3.0736,3.0772,3.0779,3.0829,3.0841,3.0852,3.0896,3.0901,3.0953,3.0954,3.1025,3.1019,3.1015,3.1014,3.1058,3.1054,3.1203,3.1222,3.1096,3.1097,3.1098,0,3.0634,3.0675,3.0704,3.0729,3.0745,3.0786,3.0811,3.0811,3.0837,3.0872,3.0903,3.0946,3.098,3.1051,3.1064,3.1103,3.1097,3.1147,3.1103,3.1103,3.1097,3.1095,3.1099,3.1155,3.1156,3.1158,3.1158,0,3.0747,3.0748,3.0785,3.0823,3.0853,3.0883,3.0911,3.0932,3.0935,3.0966,3.101,3.1037,3.1089,3.1132,3.117,3.1185,3.1173,3.1172,3.1184,3.1186,3.1182,3.1184,3.1038,3.1169,3.1168,3.1167,3.1166,3.1166,3.0828,3.0864,3.089,3.0931,3.0952,3.0978,3.1013,3.1024,3.1061,3.1104,3.1101,3.115,3.1177,3.1227,3.1245,3.1284,3.1267,3.1285,3.129,3.1294,3.1298,3.1176,3.1291,3.1291,3.129,3.129,3.129,0,3.094,3.0956,3.0994,3.1033,3.1066,3.1051,3.1081,3.1109,3.1153,3.1178,3.1212,3.1263,3.1304,3.1321,3.1361,3.1388,3.1383,3.1399,3.1396,3.14,3.1311,3.1296,3.1402,3.1402,3.1402,3.1402,3.1402,3.1402,3.1002,3.1061,3.1066,3.1135,3.115,3.1198,3.1217,3.1241,3.1261,3.1319,3.1353,3.1363,3.1385,3.1427,3.1464,3.1467,3.1482,3.15,3.1501,3.1418,3.1406,3.1396,3.1381,3.1504,3.1504,3.1587,3.1588,3.1589]},{"header":{"parameterUnit":"m.s-1","parameterCategory":1,"la1":30.2991,"la2":30.254,"lo1":-89.0895,"lo2":-89.0444,"dy":0.0017,"dx":0.0017,"nx":28,"ny":28,"refTime":"2025-04-13T21:00:00:Z","depth":0,"parameterNumber":3,"parameterNumberName":"V-component_of_WINDS"},"data":[0,0,0,0,0,0,0,0,0,0,0,0,0,0,0,0,0,0,0,0,0,0,0,0,0,0,0,0,0,0,0,0,0,0,0,0,0,0,0,0,0,0,0,0,0,0,0,0,0,0,0,0,0,0,0,0,0,0,5.9153,5.9153,0,5.919,5.9191,5.9191,5.9174,5.9173,5.9172,5.9172,5.9205,5.9207,5.9208,0,0,0,0,0,0,0,0,0,0,0,0,0,5.9061,5.9063,5.9153,5.9153,5.9154,5.919,5.9191,5.9191,5.9174,5.9173,5.9172,5.9171,5.9204,5.9206,5.9208,0,0,0,0,0,0,0,0,0,0,0,0,0,5.91,5.9064,5.9153,5.915,5.915,5.919,5.9191,5.9191,5.9175,5.9173,5.9172,5.9171,5.9204,5.9206,5.9209,5.9252,0,0,5.9217,5.9218,0,0,0,0,0,0,0,0,5.9098,5.9103,5.915,5.915,5.915,5.9176,5.9171,5.9212,5.9175,5.9165,5.9172,5.917,5.9196,5.9199,5.9209,5.9254,5.9255,5.9217,5.9219,5.922,5.922,0,0,0,0,0,0,0,5.9095,5.9102,5.9167,5.915,5.9151,5.9145,5.9149,5.9179,5.9188,5.9166,5.9165,5.917,5.9196,5.9207,5.921,5.9256,5.9217,5.9219,5.9221,5.9222,5.9339,5.934,0,0,0,0,0,0,5.9093,5.91,5.9166,5.9168,5.912,5.9148,5.9152,5.9169,5.9187,5.9189,5.9171,5.9169,5.9203,5.9207,5.9211,5.9264,5.922,5.9222,5.9224,5.9337,5.9339,5.9341,0,0,0,0,0,0,5.9091,5.9099,5.9165,5.9134,5.9142,5.9151,5.917,5.9171,5.9181,5.9191,5.9192,5.9181,5.9202,5.9207,5.9243,5.9265,5.9223,5.9226,5.9336,5.9338,5.934,5.9369,0,0,0,0,0,0,5.9089,5.9099,5.9116,5.9134,5.9144,5.9197,5.9171,5.9172,5.9187,5.9184,5.9201,5.9202,5.9201,5.9239,5.9245,5.9267,5.9228,5.9334,5.9337,5.9339,5.9366,5.9372,5.9377,0,0,0,0,0,5.9086,5.9122,5.9117,5.9126,5.9166,5.9198,5.9203,5.9204,5.9189,5.9206,5.9212,5.9201,5.9261,5.9243,5.925,5.9273,5.9332,5.9336,5.9339,5.9364,5.9371,5.9377,0,0,0,0,0,0,5.9103,5.9124,5.9119,5.9163,5.9179,5.9196,5.9217,5.9211,5.9231,5.9228,5.9226,5.9229,5.9266,5.9273,5.9252,5.9317,5.9294,5.9299,5.9311,5.9318,5.9323,5.932,5.923,0,0,0,0,0,5.9113,5.9139,5.9155,5.9192,5.9201,5.9208,5.9222,5.9221,5.9237,5.9243,5.9252,5.9267,5.9289,5.9304,5.9325,5.9368,5.9371,5.9387,5.9393,5.9397,5.9401,5.9425,5.9432,5.9352,5.9352,5.9352,0,0,5.9132,5.9146,5.9162,5.9196,5.9208,5.9235,5.9213,5.9241,5.9261,5.9247,5.9282,5.9289,5.9305,5.9345,5.9363,5.9352,5.9424,5.9402,5.9405,5.9407,5.9429,5.9437,5.9443,5.9355,5.9354,5.9354,0,0,5.9179,5.9193,5.9226,5.924,5.926,5.9265,5.9273,5.9291,5.9296,5.9331,5.9322,5.9344,5.9382,5.9394,5.9406,5.946,5.9451,5.9467,5.9495,5.9518,5.9524,5.953,5.9549,5.9556,5.9471,5.9471,5.9471,0,5.9199,5.924,5.9243,5.9273,5.9287,5.9279,5.9311,5.9324,5.9349,5.9359,5.9347,5.9396,5.9406,5.9449,5.9463,5.9472,5.948,5.9465,5.9524,5.9529,5.9534,5.9553,5.956,5.9473,5.9473,5.9473,5.9472,0,5.9264,5.9293,5.9316,5.9344,5.9361,5.9392,5.9398,5.9415,5.9413,5.9419,5.9455,5.9467,5.9491,5.9501,5.9498,5.9544,5.9536,5.9524,5.9502,5.9544,5.9561,5.9568,5.9476,5.9475,5.9474,5.9474,0,0,5.9322,5.9353,5.9361,5.9374,5.9397,5.9419,5.9449,5.9474,5.9489,5.9507,5.9532,5.9566,5.9555,5.9568,5.9567,5.9587,5.963,5.9572,5.9573,5.9582,5.968,5.9689,5.9697,5.9624,5.9625,5.9627,5.9679,0,5.9372,5.9427,5.9431,5.9481,5.9507,5.95,5.9526,5.9543,5.9549,5.9571,5.9577,5.9602,5.9586,5.9594,5.9614,5.962,5.9649,5.9617,5.9646,5.9647,5.9642,5.9706,5.9716,5.9764,5.9686,5.9687,5.9688,0,5.9436,5.946,5.9512,5.9533,5.9544,5.9568,5.9592,5.9614,5.9632,5.9635,5.9651,5.9647,5.9677,5.9655,5.9696,5.9673,5.9686,5.9691,5.9693,5.9695,5.9669,5.971,5.978,5.9787,5.9698,5.9697,5.9697,0,5.9474,5.9518,5.9556,5.9567,5.9592,5.9609,5.962,5.9637,5.9652,5.9673,5.9683,5.9706,5.9718,5.9736,5.9738,5.9721,5.9779,5.9756,5.9782,5.9782,5.9793,5.9793,5.9866,5.9802,5.9802,5.9802,5.9802,0,5.9528,5.9561,5.9573,5.9596,5.9632,5.9636,5.9671,5.9681,5.9696,5.972,5.9715,5.9737,5.9739,5.9761,5.9763,5.9797,5.9802,5.9805,5.9805,5.9805,5.9805,5.9813,5.9809,5.9804,5.9803,5.9803,5.9803,0,5.9575,5.9585,5.9626,5.9647,5.9654,5.9679,5.9697,5.9718,5.9725,5.9755,5.9763,5.9773,5.9799,5.9803,5.9833,5.9835,5.9875,5.9872,5.987,5.9869,5.9894,5.9892,5.9975,5.9986,5.9915,5.9916,5.9916,0,5.9609,5.9635,5.966,5.9677,5.969,5.9716,5.9733,5.9738,5.9755,5.9779,5.9797,5.9824,5.9845,5.9887,5.9896,5.9919,5.9916,5.9943,5.9919,5.9919,5.9916,5.9914,5.9917,5.9948,5.9948,5.9949,5.995,0,5.9668,5.9673,5.9698,5.9726,5.9747,5.9768,5.9788,5.9801,5.9809,5.9828,5.9856,5.9873,5.9906,5.9931,5.9955,5.9964,5.9958,5.9958,5.9965,5.9965,5.9963,5.9964,5.9882,5.9955,5.9955,5.9954,5.9954,5.9954,5.971,5.9733,5.9755,5.9784,5.98,5.9819,5.9841,5.9852,5.9876,5.9905,5.9906,5.9936,5.9954,5.9986,5.9997,6.002,6.0011,6.0021,6.0023,6.0026,6.0028,5.996,6.0024,6.0024,6.0024,6.0024,6.0024,0,5.9769,5.9783,5.981,5.984,5.9863,5.9858,5.988,5.9899,5.9927,5.9945,5.9967,6.0,6.0025,6.0037,6.0062,6.0078,6.0076,6.0084,6.0083,6.0085,6.0035,6.0027,6.0086,6.0086,6.0086,6.0086,6.0086,6.0086,5.9802,5.9841,5.9848,5.9894,5.9908,5.994,5.9954,5.9971,5.9986,6.0024,6.0046,6.0055,6.007,6.0096,6.0119,6.0122,6.0131,6.0141,6.0142,6.0095,6.0089,6.0083,6.0075,6.0143,6.0143,6.0191,6.0191,6.0192]}]]